Wind_Speed
12 13 14 15 15 16 16 17 18 18 18 19 19 18 16 12 22 24 17 13 19 23 15 16 18 19 3 3 0 3 1 5 7 7 6 1 0 3 2 2 2 3 3 3 22
12 14 14 15 15 16 16 17 19 18 17 18 18 16 13 3 10 22 13 13 16 18 25 17 12 12 4 4 4 3 3 6 7 6 4 2 2 3 4 6 3 4 4 11 18
12 13 14 15 16 16 16 17 17 17 16 17 17 15 7 2 3 6 12 10 11 15 13 15 16 4 4 3 2 3 11 2 3 4 3 4 3 4 4 7 6 3 3 8 7
12 13 14 15 16 17 15 15 15 15 16 16 16 13 8 4 5 6 11 11 12 15 16 9 5 4 4 5 5 6 2 3 4 8 6 3 6 6 7 6 7 6 4 7 11
11 12 13 15 16 16 15 15 15 13 12 14 15 15 4 5 3 7 11 14 11 13 11 5 5 3 2 4 9 6 7 6 9 13 12 13 6 10 20 13 9 8 8 7 10
12 13 14 15 16 16 17 17 14 10 9 11 14 13 3 11 7 10 15 17 17 12 7 3 2 2 3 2 2 8 13 14 9 9 9 13 11 8 27 7 11 9 12 10 11
13 13 14 15 16 17 20 20 10 5 6 9 13 13 3 4 8 13 15 18 18 16 4 6 2 2 3 5 4 9 18 18 13 6 7 6 14 20 39 4 8 9 9 10 9
14 14 14 14 16 19 22 13 3 1 3 8 11 8 1 4 13 13 12 15 13 13 11 13 5 2 3 3 6 7 8 5 6 3 6 12 26 21 19 7 10 8 9 9 11
14 14 14 14 16 19 20 6 4 1 2 5 5 5 4 13 9 13 12 9 14 11 8 8 2 3 1 3 5 2 10 15 16 10 6 12 21 12 11 8 9 6 9 10 11
14 14 14 14 16 18 11 3 5 2 4 3 3 3 6 5 8 12 11 12 4 7 6 5 4 2 3 3 6 6 9 9 12 5 16 15 21 15 13 10 11 11 8 9 10
13 13 12 12 14 16 5 2 5 3 4 1 1 1 5 11 6 12 10 8 1 4 4 3 3 5 10 11 15 14 17 19 15 13 16 19 20 14 11 10 14 12 8 10 11
11 11 11 11 10 14 7 5 1 2 3 1 3 5 9 4 2 10 13 6 5 4 3 4 3 8 7 10 12 14 17 20 16 11 16 10 18 15 13 9 10 15 17 12 8
9 9 10 10 5 5 14 6 4 4 3 4 4 3 5 5 2 8 6 5 3 5 7 2 8 9 9 11 11 14 16 13 14 8 15 9 14 10 7 7 9 9 13 14 11
8 7 9 10 1 2 3 9 2 5 4 4 2 2 5 2 4 7 12 3 6 4 6 5 5 9 10 6 11 16 14 15 13 5 4 4 5 4 2 6 6 15 8 8 8
7 6 6 5 1 3 4 5 1 2 4 4 4 3 5 6 1 6 8 6 4 6 2 6 12 10 6 9 10 9 9 13 13 6 5 7 1 5 9 13 19 11 13 11 9
6 6 4 2 1 2 5 1 2 6 4 1 1 3 5 5 4 5 7 7 1 4 2 11 4 2 5 16 18 14 7 6 9 3 4 5 4 3 7 11 18 16 16 14 13
6 5 5 3 0 1 1 3 5 5 3 2 1 2 2 4 4 5 6 8 6 7 13 8 5 5 9 14 1 1 1 1 3 1 3 5 7 4 9 14 13 15 16 15 14
6 7 6 7 5 2 2 5 4 3 4 1 2 1 3 5 3 6 3 6 5 2 3 5 8 7 14 6 6 6 3 2 3 4 4 3 7 4 13 12 14 15 15 17 19
6 6 4 3 11 3 5 3 7 6 5 5 3 3 1 2 1 5 3 4 2 5 3 5 5 5 10 14 6 4 3 1 4 2 3 4 3 4 16 19 20 19 20 21 19
3 3 4 7 11 6 4 5 3 3 4 3 4 3 3 1 3 3 2 2 4 3 2 2 5 2 6 8 7 6 6 1 2 3 3 6 6 9 16 14 18 19 18 18 19
3 1 5 15 9 4 3 6 4 5 2 4 5 3 3 2 1 1 1 0 3 5 3 1 2 7 4 4 6 5 8 5 2 3 3 4 2 5 9 9 13 16 16 15 17
2 0 8 15 3 2 3 4 4 3 3 2 3 3 4 3 2 2 2 3 3 3 4 2 1 4 4 6 4 3 3 5 3 4 1 2 2 7 4 4 7 13 15 16 16
2 2 3 6 4 3 4 3 2 3 4 5 5 3 2 3 1 3 1 3 4 4 3 3 2 4 6 5 5 5 6 7 2 1 2 3 3 5 3 4 4 6 8 10 14
2 1 3 3 1 7 5 4 4 3 3 3 4 3 3 2 2 2 1 2 3 0 6 2 1 3 4 5 3 8 16 10 1 2 1 2 3 11 9 5 5 2 3 7 9
2 4 3 4 4 5 6 8 6 5 5 6 3 5 5 2 1 2 2 2 3 3 2 3 1 2 5 5 3 7 10 9 1 3 3 1 8 8 6 5 5 6 6 8 8
3 3 1 1 5 12 9 8 10 5 7 5 4 7 6 5 6 7 4 3 4 1 1 1 2 3 4 3 3 3 7 5 6 6 5 3 8 4 5 6 6 5 5 4 3
9 3 3 1 3 7 5 7 10 8 5 6 8 5 5 7 7 6 6 3 2 4 3 2 2 2 4 5 4 4 3 4 4 4 2 3 3 3 1 4 5 5 5 5 6
Wind_Direction
27 19 14 5 4 0 359 357 352 352 349 345 346 349 1 41 58 51 44 14 16 19 11 9 14 360 6 357 132 139 226 222 212 162 244 304 171 285 262 222 302 286 299 325 142
20 15 9 2 358 358 356 353 354 352 350 348 348 347 352 29 51 51 29 29 17 8 20 23 3 347 9 359 326 150 200 228 192 193 235 291 321 276 325 322 233 262 78 114 145
15 8 4 1 355 353 354 351 356 356 351 349 352 351 357 75 64 339 11 26 21 359 355 17 14 33 10 338 307 251 237 168 326 357 347 279 273 247 208 272 210 236 311 148 160
8 3 2 358 352 350 351 354 353 349 351 355 360 11 37 68 86 323 19 16 16 13 17 23 17 38 4 327 333 306 341 100 342 341 332 280 323 302 258 238 270 286 315 162 178
1 1 359 356 351 352 351 349 343 340 349 354 2 12 38 46 130 347 343 349 354 356 24 26 37 44 13 323 325 256 332 318 329 322 305 301 260 270 268 248 267 276 290 215 195
355 358 356 356 352 350 346 340 329 329 344 352 8 13 56 74 339 342 339 343 339 347 342 34 13 300 253 262 257 309 315 308 300 295 285 288 289 325 267 260 237 242 253 258 211
348 351 352 353 351 347 341 333 318 312 335 4 10 4 27 69 350 343 339 335 328 317 306 288 312 98 10 321 284 298 307 307 281 218 241 276 265 232 253 346 287 253 252 248 237
342 344 347 351 347 345 342 338 336 322 341 5 3 1 296 348 338 4 339 320 315 319 300 310 306 178 162 263 333 316 289 324 349 254 252 167 257 239 262 257 257 246 253 259 262
335 338 343 348 348 348 347 27 67 56 15 1 1 35 356 345 11 353 331 297 314 320 326 297 132 191 287 341 325 228 276 280 298 325 262 194 263 266 255 257 260 228 246 254 262
329 333 339 346 352 354 357 77 87 15 30 32 31 33 333 339 337 335 345 315 296 341 360 44 50 40 23 98 265 268 273 282 273 356 309 300 277 282 284 281 257 263 233 244 247
321 328 335 347 1 5 36 128 12 346 34 89 241 255 291 328 39 0 329 313 9 51 21 355 48 245 244 227 251 265 270 273 274 286 289 284 286 299 275 258 266 257 229 240 246
314 322 332 345 360 18 47 66 61 309 334 205 250 276 270 265 352 338 346 19 23 341 358 13 259 267 252 267 258 255 258 265 279 263 272 283 292 289 281 255 242 245 250 236 236
304 316 328 337 348 24 50 39 355 348 103 308 210 244 271 146 53 329 20 334 20 350 333 216 268 309 294 283 266 257 246 255 261 280 266 293 286 257 258 234 252 242 241 243 215
293 309 327 337 126 40 45 356 348 2 72 294 358 332 344 146 48 7 0 38 2 332 330 292 279 322 330 287 285 265 237 246 241 238 232 130 299 309 322 311 21 339 295 280 275
280 300 327 12 58 67 346 359 72 27 40 270 305 343 351 90 302 339 343 13 349 301 10 270 296 308 310 274 307 271 270 229 223 209 260 161 211 340 351 353 339 343 3 358 333
267 290 311 305 302 113 356 106 345 47 255 60 335 37 34 13 2 336 6 9 306 330 261 287 265 257 284 298 281 263 332 231 227 160 251 205 130 42 15 352 0 0 2 360 12
256 271 281 267 116 69 36 56 44 126 288 174 126 39 102 340 12 35 15 14 39 1 348 327 315 327 5 324 41 58 108 194 221 16 240 196 155 57 7 4 5 355 359 7 18
255 265 264 241 206 274 104 55 94 224 219 81 86 68 92 18 23 9 37 16 352 56 293 0 327 9 338 337 301 314 303 187 235 176 216 118 169 74 12 358 2 14 10 13 19
258 269 244 227 203 204 77 69 207 209 180 138 73 103 50 15 98 29 67 348 309 16 24 354 286 310 323 342 324 6 19 138 280 264 116 146 82 62 8 359 4 12 13 17 16
249 223 215 165 153 131 80 237 221 223 132 99 153 162 158 270 35 42 24 268 348 348 172 287 287 287 304 346 1 39 321 23 3 14 318 92 50 352 0 358 352 359 16 18 20
238 77 169 151 147 61 171 224 230 232 179 138 187 146 149 162 207 260 249 110 13 308 318 309 194 299 358 17 343 335 21 7 308 14 344 14 46 292 329 2 356 350 356 20 30
169 42 165 156 80 114 170 203 211 172 139 156 131 151 166 182 194 247 208 193 9 310 1 267 253 286 272 315 2 33 23 358 51 344 7 154 204 281 288 4 21 354 359 12 23
204 199 155 188 155 206 264 261 232 152 170 160 182 177 170 173 88 213 236 169 35 54 15 336 345 340 349 353 11 3 326 330 266 67 356 81 336 333 336 313 333 67 24 17 21
96 166 321 38 257 149 162 201 196 203 171 161 172 130 127 168 168 195 225 260 344 228 29 42 211 165 197 218 274 309 319 327 4 75 282 56 14 2 11 20 301 330 65 43 31
168 232 198 203 230 177 162 170 164 170 201 176 206 182 163 160 13 235 225 298 310 128 70 89 276 283 258 271 256 271 293 324 296 275 94 52 57 9 41 2 1 48 39 29 37
169 161 99 258 147 172 183 199 176 183 156 196 189 185 174 173 188 203 193 189 234 112 79 33 258 38 308 19 3 313 354 8 34 37 58 78 66 343 3 22 8 13 8 2 45
188 194 119 189 157 166 206 178 189 152 214 180 180 134 180 219 208 215 196 194 188 164 171 141 116 64 283 352 330 6 356 2 39 33 116 55 308 327 306 310 306 307 321 325 329
Height
820 820 818 818 817 815 813 811 810 807 805 804 801 799 797 797 795 791 790 798 795 792 790 786 784 783 779 780 779 783 797 808 793 791 781 761 763 755 749 754 752 747 746 742 741
821 819 820 819 818 815 813 812 809 807 805 804 802 800 798 797 795 794 800 798 798 795 790 786 787 784 785 784 783 787 805 784 780 774 771 763 764 760 758 758 753 748 745 746 745
821 821 821 819 818 816 814 812 810 808 806 805 802 800 799 796 798 802 801 800 798 796 794 790 789 788 791 788 786 785 777 773 769 767 766 767 764 758 758 762 752 748 745 747 748
823 823 821 820 819 817 815 814 812 810 807 805 802 799 797 797 814 804 801 800 798 797 793 790 792 794 798 799 794 795 777 777 775 772 770 769 763 762 758 749 742 743 742 744 747
824 823 822 820 818 817 815 813 812 811 808 806 803 800 799 801 805 802 802 801 799 797 794 794 795 796 802 803 798 791 783 781 782 780 775 766 768 763 749 743 742 741 741 741 744
825 823 822 820 819 818 816 813 812 810 809 807 804 802 801 806 803 802 802 799 798 797 797 797 798 798 800 801 803 792 789 788 783 783 777 775 769 764 724 737 740 742 738 736 738
825 824 822 820 819 817 815 812 810 810 809 808 805 803 802 805 802 801 800 798 796 795 796 796 797 799 801 803 797 795 790 782 778 779 778 772 769 757 714 736 741 741 737 732 732
826 824 823 821 820 818 814 811 809 809 809 808 806 803 805 802 802 801 800 799 796 796 796 795 796 799 801 800 800 800 793 794 774 772 771 767 754 735 727 739 740 742 739 735 728
826 825 823 821 819 817 813 810 809 809 809 808 808 807 806 803 803 802 801 799 797 796 795 795 797 801 801 806 813 806 804 794 786 773 770 766 748 740 739 738 736 737 740 735 730
826 824 823 821 819 816 812 811 811 810 809 809 810 812 805 808 805 804 802 799 798 798 797 797 806 809 816 818 822 813 807 800 789 779 773 767 753 748 745 738 736 732 737 734 730
826 825 823 821 820 817 814 814 815 815 811 813 814 814 809 808 807 806 802 799 799 802 806 804 813 819 811 808 799 799 799 795 787 783 778 766 755 749 742 739 731 728 730 731 727
825 824 823 821 820 819 815 817 822 823 818 813 814 814 810 810 811 807 803 802 803 809 805 812 816 803 802 799 800 798 797 791 780 776 776 769 757 749 744 736 730 725 721 721 722
825 824 823 822 821 822 822 822 822 822 828 815 812 811 809 810 812 810 805 804 805 808 809 813 804 796 797 794 794 792 792 786 781 777 764 767 755 743 734 728 723 718 713 709 713
825 824 824 822 825 823 824 824 823 822 835 818 812 810 808 807 812 809 805 807 808 811 807 808 799 798 799 798 795 786 775 775 775 779 780 767 766 742 732 732 727 728 718 713 709
824 824 824 823 824 824 826 823 823 824 875 820 813 809 809 812 814 812 809 806 811 811 810 815 802 801 803 790 786 783 767 768 770 767 781 764 768 758 749 748 741 735 727 721 716
823 823 823 824 824 826 825 824 825 857 873 819 814 816 816 815 816 816 816 810 810 812 809 808 799 798 799 790 782 774 774 766 765 771 774 764 754 762 768 767 752 741 735 725 719
822 822 823 823 824 825 825 826 854 875 830 820 818 818 819 823 819 823 826 826 833 828 820 814 803 798 800 792 773 777 784 784 787 812 778 748 748 772 773 767 759 752 742 732 724
821 821 821 821 823 825 826 839 870 841 829 815 817 818 823 824 823 826 829 839 828 830 838 836 822 806 797 804 791 783 779 783 775 774 761 741 750 771 776 772 761 752 747 737 729
819 819 818 818 821 824 833 872 856 834 818 819 819 824 826 825 827 828 835 838 832 830 839 837 827 802 793 790 786 776 779 785 780 767 758 756 763 768 782 773 764 754 749 744 739
818 817 816 817 820 824 843 841 828 820 814 817 822 823 829 830 830 831 831 830 831 826 829 827 832 801 795 790 788 790 785 776 780 822 777 756 776 782 782 781 774 765 759 753 749
818 819 814 816 820 829 851 845 824 816 812 818 825 824 825 827 830 832 829 827 827 827 826 827 833 814 803 813 815 804 798 795 791 797 782 768 800 791 791 788 785 779 767 763 759
817 828 813 814 830 838 845 824 812 810 812 814 817 818 824 825 827 827 827 825 826 827 831 829 830 831 820 808 805 803 813 807 819 801 828 803 809 788 791 789 792 789 775 770 762
818 816 813 812 839 836 832 819 811 812 812 816 819 817 818 822 834 827 824 823 825 827 829 828 841 848 825 820 812 815 809 807 804 821 814 834 808 784 787 787 785 788 781 776 771
817 819 817 815 816 816 817 817 817 810 811 812 815 816 819 822 825 831 825 822 824 824 821 825 831 834 855 844 832 822 810 808 808 820 812 814 806 790 785 789 784 782 785 778 776
810 809 805 819 818 810 808 810 811 812 812 813 815 816 819 841 835 828 825 825 824 821 825 831 839 829 827 829 827 823 816 810 802 800 809 803 804 800 793 790 786 784 781 779 777
802 807 805 804 801 803 804 809 805 806 809 811 813 815 820 822 822 834 825 828 827 827 827 835 846 837 858 824 824 819 812 809 806 804 805 806 804 801 794 791 790 787 784 781 781
793 795 799 801 803 802 803 798 799 800 802 802 809 817 818 817 816 817 820 821 822 825 831 841 850 856 865 829 826 843 813 810 810 808 806 808 805 801 798 795 792 789 786 784 782